Погода в Валь-ле-Бэн

Франция     44°39′33″N   4°22′01″E
темп.,
°C
ветер,
м/с
пор.,
м/с
влажн.,
%
обл.,
%
осадки,
мм/ч
давл.,
гПа
погр.,
м
27 января, ср
ср2701:00−1сз235098 0.0 102253
04:00−1сз335999 0.3 102076
07:00+2сз1295100 4.3 102070
10:00+3сз2494100 0.8 1019173
13:00+7сз4118291 1.1 1019948
16:00+5сз4109077 0.0 1018594
19:00+4сз4119276 0.0 1019507
22:00+4сз379498 0.1 1020288
28 января, чт
чт2801:00+4сз239596 0.1 102078
04:00+5сз399583 0.5 1019349
07:00+5зсз399564 0.5 1019287
10:00+7зсз31091100 0.0 1019587
13:00+9з21086100 0.0 10191083
16:00+9з3118799 0.0 10171000
19:00+7зсз2894100 0.2 1017370
22:00+5зсз1295100 0.0 101766
29 января, пт
пт2901:00+6з2693100 0.0 1016280
04:00+5зюз2595100 0.0 1012135
07:00+6з1498100 4.2 1011202
10:00+7зсз7178188 1.2 10131385
13:00+8сз7146955 1.2 10131327
16:00+7зсз81669100 0.0 10131203
19:00+4зсз388699 0.0 1014369
22:00+3зсз288999 0.0 1014395
30 января, сб
сб3001:00+2зюз119297 0.1 101352
04:00+3зюз1194100 1.4 100937
07:00+3зюз2295100 1.9 100435
10:00+5юз2695100 0.4 1003409
13:00+6зсз51279100 1.3 10021090
16:00+5зсз3982100 0.0 10001142
19:00+4сз41087100 0.1 1000801
22:00+2сз5118897 0.1 1001658
31 января, вс
вс3101:00+1сз388767 0.1 1001300
04:000сз33919 0.0 100181
07:000сз359211 0.0 1002152
10:00+3ссз488339 0.0 1005695
13:00+5сз367261 0.0 1005784
16:00+5сз387482 0.0 10041128
19:00+3сз139384 0.1 1004144
22:00+3юз2598100 1.6 1002340